Weather in Trinidad

Uruguay     33°30′46″S   56°54′33″W
temp.,
°C
wind,
m/s
gust,
m/s
humid.,
%
clouds,
%
prec.,
mm/h
press.,
hPa
HPBL,
m
9 august, tue
tue900:00+9ese496891 0.0 1029225
03:00+8ese387995 0.0 1029227
06:00+6se377979 0.0 1029189
09:00+8se4977100 0.0 1031279
12:00+13se67536 0.0 10311152
15:00+14se56495 0.0 10291543
18:00+10se34685 0.0 102962
21:00+6se49784 0.0 1031164
10 august, wed
wed1000:00+5ese48880 0.0 1031138
03:00+4ese34940 0.0 103062
06:00+3ene34930 0.0 102953
09:00+6e23810 0.0 1029135
12:00+12ene34549 0.0 1028738
15:00+14ne4447100 0.0 10261026
18:00+10nne3466100 0.0 102543
21:00+7ne3481100 0.0 102655
11 august, thu
thu1100:00+6ne36895 0.0 102693
03:00+5nne36930 0.0 1025100
06:00+4nne35940 0.0 102585
09:00+7nne47850 0.0 1026191
12:00+14n57630 0.0 1025824
15:00+16n57540 0.0 10221205
18:00+12nne35770 0.0 102167
21:00+9nne46900 0.0 102185
12 august, fri
fri1200:00+8ne47935 0.0 1021123
03:00+8ne41196100 0.0 1020209
06:00+8ne41096100 0.0 1019217
09:00+10ne41090100 0.0 1020282
12:00+16nne6869100 0.0 1018630
15:00+18n5763100 0.0 10151250
18:00+15n358369 0.1 101573
21:00+12nne369381 0.1 101694
13 august, sat
sat1300:00+12nne37961 0.0 1017131
03:00+11n33960 0.0 101748
06:00+10n33950 0.0 101734
09:00+13nne12880 0.0 101892
12:00+19ne32690 0.0 1018656
15:00+20ne33610 0.0 10161052
18:00+16ne35800 0.0 101679
21:00+13ene46900 0.0 101688